Terug naar catalogus

SKYNET 5D

ActiefMilitairGEO
NORAD 39034·PAYLOAD·🇬🇧 United Kingdom

Gelanceerd Dec 19, 2012 vanaf Guiana Space Centre

Loading…

TLE

VersSource: Space-Track

Epoch: Sep 14, 2026, 14:03 UTC

1 39034U 12075A   26257.58558772  .00000091  00000-0  00000-0 0  9993
2 39034   0.0768   7.3745 0003743 175.3526  74.3793  1.00273685 50059

Volg SKYNET 5D in realtime met AllMySat

Download on the App Store